| time (UTC) | temp C | wind direction | speed KPH | gust KPH | rain 1hr cm | rain 24hr cm | rain mn cm | humidity % | barometer mb |
| 20260831050042 | 23 | 156 | 4.8 | 12.9 | 0.00 | 0.00 | 0.00 | 81 | 1008.3 |
| 20260831044540 | 23 | 172 | 4.8 | 11.3 | 0.00 | 0.00 | 0.00 | 81 | 1008.2 |
| 20260831043039 | 23 | 163 | 6.4 | 11.3 | 0.00 | 0.00 | 0.00 | 81 | 1008.3 |
| 20260831041539 | 23 | 177 | 1.6 | 14.5 | 0.00 | 0.00 | 0.00 | 81 | 1008.3 |
| 20260831040039 | 23 | 161 | 4.8 | 12.9 | 0.00 | 0.00 | 0.00 | 80 | 1008.3 |
| 20260831034546 | 23 | 182 | 8.0 | 11.3 | 0.00 | 0.00 | 0.00 | 80 | 1008.1 |
| 20260831033038 | 24 | 173 | 9.7 | 17.7 | 0.00 | 0.00 | 0.00 | 79 | 1008.2 |
| 20260831031538 | 24 | 149 | 9.7 | 14.5 | 0.00 | 0.00 | 0.00 | 78 | 1008.2 |
| 20260831030037 | 24 | 170 | 11.3 | 22.5 | 0.00 | 0.00 | 0.00 | 77 | 1007.9 |
| 20260831024539 | 25 | 168 | 8.0 | 16.1 | 0.00 | 0.00 | 0.00 | 76 | 1008.0 |
| 20260831023036 | 25 | 148 | 8.0 | 16.1 | 0.00 | 0.00 | 0.00 | 75 | 1008.1 |
| 20260831021539 | 25 | 178 | 12.9 | 25.7 | 0.00 | 0.00 | 0.00 | 74 | 1008.1 |
| 20260831020035 | 25 | 166 | 9.7 | 17.7 | 0.00 | 0.00 | 0.00 | 72 | 1008.2 |
| 20260831014534 | 26 | 153 | 8.0 | 16.1 | 0.00 | 0.00 | 0.00 | 71 | 1008.2 |
| 20260831013034 | 26 | 162 | 16.1 | 24.1 | 0.00 | 0.00 | 0.00 | 70 | 1008.2 |
| 20260831011543 | 26 | 164 | 16.1 | 32.2 | 0.00 | 0.00 | 0.00 | 68 | 1007.9 |
| 20260831010039 | 27 | 150 | 12.9 | 32.2 | 0.00 | 0.00 | 0.00 | 64 | 1007.7 |
| 20260831004532 | 28 | 172 | 19.3 | 29.0 | 0.00 | 0.00 | 0.00 | 62 | 1007.5 |
| 20260831003036 | 28 | 140 | 8.0 | 12.9 | 0.00 | 0.00 | 0.00 | 63 | 1007.5 |
| 20260831001531 | 28 | 164 | 8.0 | 17.7 | 0.00 | 0.00 | 0.00 | 61 | 1007.0 |
| 20260831000032 | 29 | 169 | 9.7 | 17.7 | 0.00 | 0.00 | 0.00 | 62 | 1007.0 |
| 20260830234538 | 30 | 172 | 11.3 | 19.3 | 0.00 | 0.00 | 0.00 | 63 | 1006.9 |
| 20260830233030 | 30 | 169 | 8.0 | 25.7 | 0.00 | 0.00 | 0.00 | 64 | 1007.0 |
| 20260830231530 | 30 | 155 | 12.9 | 25.7 | 0.00 | 0.00 | 0.00 | 63 | 1007.0 |
| 20260830230028 | 30 | 178 | 8.0 | 29.0 | 0.00 | 0.00 | 0.00 | 63 | 1007.1 |
| 20260830224528 | 30 | 153 | 3.2 | 8.0 | 0.00 | 0.00 | 0.00 | 65 | 1006.9 |
| 20260830223027 | 30 | 107 | 3.2 | 9.7 | 0.00 | 0.00 | 0.00 | 66 | 1006.8 |
| 20260830221540 | 30 | 86 | 4.8 | 12.9 | 0.00 | 0.00 | 0.00 | 66 | 1006.7 |
| 20260830220026 | 30 | 78 | 3.2 | 17.7 | 0.00 | 0.00 | 0.00 | 65 | 1007.0 |
| 20260830214523 | 30 | 146 | 1.6 | 11.3 | 0.00 | 0.00 | 0.00 | 66 | 1007.1 |
| 20260830213023 | 30 | 104 | 3.2 | 12.9 | 0.00 | 0.00 | 0.00 | 65 | 1007.1 |
| 20260830211521 | 29 | 82 | 4.8 | 22.5 | 0.00 | 0.00 | 0.00 | 67 | 1007.3 |
| 20260830210019 | 30 | 99 | 4.8 | 16.1 | 0.00 | 0.00 | 0.00 | 65 | 1007.5 |
| 20260830204518 | 29 | 157 | 4.8 | 14.5 | 0.00 | 0.00 | 0.00 | 66 | 1007.6 |
| 20260830203016 | 30 | 115 | 6.4 | 14.5 | 0.00 | 0.00 | 0.00 | 63 | 1007.8 |
| 20260830201514 | 30 | 106 | 4.8 | 16.1 | 0.00 | 0.00 | 0.00 | 65 | 1008.0 |
| 20260830200031 | 29 | 117 | 6.4 | 16.1 | 0.00 | 0.00 | 0.00 | 66 | 1007.9 |
| 20260830194512 | 29 | 175 | 8.0 | 19.3 | 0.00 | 0.00 | 0.00 | 65 | 1007.9 |
| 20260830193011 | 29 | 28 | 4.8 | 20.9 | 0.00 | 0.00 | 0.00 | 66 | 1008.0 |
| 20260830191508 | 29 | 56 | 6.4 | 16.1 | 0.00 | 0.00 | 0.00 | 66 | 1007.8 |
| 20260830190013 | 28 | 44 | 6.4 | 20.9 | 0.00 | 0.00 | 0.00 | 67 | 1008.0 |
| 20260830184619 | 28 | 174 | 6.4 | 20.9 | 0.00 | 0.00 | 0.00 | 68 | 1008.1 |
| 20260830184501 | 28 | 130 | 8.0 | 20.9 | 0.00 | 0.00 | 0.00 | 67 | 1008.1 |
| 20260830183111 | 27 | 153 | 6.4 | 16.1 | 0.00 | 0.00 | 0.00 | 69 | 1008.6 |
| 20260830181556 | 27 | 148 | 8.0 | 17.7 | 0.00 | 0.00 | 0.00 | 70 | 1008.6 |
| 20260830180057 | 27 | 130 | 9.7 | 16.1 | 0.00 | 0.00 | 0.00 | 71 | 1008.7 |
| 20260830174604 | 26 | 200 | 6.4 | 16.1 | 0.00 | 0.00 | 0.00 | 72 | 1008.8 |
| 20260830173047 | 26 | 84 | 3.2 | 14.5 | 0.00 | 0.00 | 0.00 | 75 | 1009.1 |
| 20260830171547 | 25 | 163 | 6.4 | 11.3 | 0.00 | 0.00 | 0.00 | 74 | 1009.4 |
| 20260830170045 | 26 | 146 | 4.8 | 14.5 | 0.00 | 0.00 | 0.00 | 74 | 1009.2 |
| 20260830164544 | 26 | 65 | 4.8 | 12.9 | 0.00 | 0.00 | 0.00 | 74 | 1009.2 |
| 20260830163041 | 25 | 183 | 3.2 | 24.1 | 0.00 | 0.00 | 0.00 | 76 | 1009.1 |
| 20260830161547 | 25 | 61 | 3.2 | 12.9 | 0.00 | 0.00 | 0.00 | 76 | 1008.6 |
| 20260830160042 | 25 | 199 | 1.6 | 17.7 | 0.00 | 0.00 | 0.00 | 77 | 1008.4 |
| 20260830154537 | 25 | 22 | 4.8 | 14.5 | 0.00 | 0.00 | 0.00 | 76 | 1008.4 |
| 20260830153034 | 24 | 91 | 4.8 | 17.7 | 0.00 | 0.00 | 0.00 | 77 | 1008.5 |
| 20260830151533 | 24 | 90 | 9.7 | 16.1 | 0.00 | 0.00 | 0.00 | 76 | 1008.5 |
| 20260830150031 | 24 | 108 | 6.4 | 12.9 | 0.00 | 0.00 | 0.00 | 77 | 1008.6 |
| 20260830144531 | 23 | 59 | 1.6 | 14.5 | 0.00 | 0.00 | 0.00 | 82 | 1008.5 |
| 20260830143022 | 22 | 32 | 3.2 | 12.9 | 0.00 | 0.00 | 0.00 | 83 | 1008.5 |
| 20260830141520 | 22 | 52 | 3.2 | 9.7 | 0.00 | 0.00 | 0.00 | 83 | 1008.6 |
| 20260830140022 | 22 | 40 | 3.2 | 8.0 | 0.00 | 0.00 | 0.00 | 84 | 1008.9 |
| 20260830134527 | 22 | 40 | 3.2 | 9.7 | 0.00 | 0.00 | 0.00 | 84 | 1009.2 |
| 20260830133019 | 21 | 83 | 3.2 | 11.3 | 0.00 | 0.00 | 0.00 | 86 | 1009.0 |
| 20260830131516 | 20 | 75 | 1.6 | 14.5 | 0.00 | 0.00 | 0.00 | 87 | 1008.7 |
| 20260830130015 | 20 | 63 | 4.8 | 11.3 | 0.00 | 0.00 | 0.00 | 88 | 1008.6 |
| 20260830124517 | 20 | 96 | 3.2 | 9.7 | 0.00 | 0.00 | 0.00 | 88 | 1008.6 |
| 20260830123009 | 20 | 63 | 3.2 | 8.0 | 0.00 | 0.00 | 0.00 | 88 | 1008.6 |
| 20260830121508 | 20 | 67 | 1.6 | 12.9 | 0.00 | 0.00 | 0.00 | 88 | 1008.5 |
| 20260830120003 | 20 | 74 | 3.2 | 8.0 | 0.00 | 0.00 | 0.00 | 88 | 1008.4 |
| 20260830114501 | 20 | 47 | 1.6 | 8.0 | 0.00 | 0.36 | 0.00 | 88 | 1008.4 |
| 20260830113106 | 20 | 39 | 3.2 | 8.0 | 0.00 | 0.36 | 0.00 | 88 | 1008.2 |
| 20260830111559 | 20 | 82 | 3.2 | 8.0 | 0.00 | 0.36 | 0.00 | 88 | 1008.3 |
| 20260830110059 | 20 | 61 | 3.2 | 9.7 | 0.00 | 0.36 | 0.00 | 88 | 1008.5 |
| 20260830104606 | 20 | 45 | 3.2 | 9.7 | 0.00 | 0.66 | 0.00 | 87 | 1008.7 |
| 20260830103056 | 20 | 71 | 3.2 | 8.0 | 0.00 | 0.66 | 0.00 | 87 | 1008.5 |
| 20260830101555 | 20 | 76 | 0.0 | 3.2 | 0.00 | 0.66 | 0.00 | 87 | 1008.8 |
| 20260830100054 | 20 | 76 | 0.0 | 4.8 | 0.00 | 0.66 | 0.00 | 87 | 1008.6 |
| 20260830094555 | 20 | 46 | 1.6 | 9.7 | 0.00 | 0.81 | 0.00 | 86 | 1008.4 |
| 20260830093050 | 20 | 41 | 1.6 | 8.0 | 0.00 | 0.81 | 0.00 | 86 | 1008.4 |
| 20260830091549 | 20 | 57 | 1.6 | 6.4 | 0.00 | 0.81 | 0.00 | 86 | 1008.4 |
| 20260830090046 | 20 | 71 | 1.6 | 6.4 | 0.00 | 0.81 | 0.00 | 86 | 1008.5 |
| 20260830084547 | 20 | 77 | 3.2 | 9.7 | 0.00 | 0.81 | 0.00 | 85 | 1008.5 |
| 20260830083057 | 20 | 59 | 1.6 | 6.4 | 0.00 | 0.81 | 0.00 | 85 | 1008.6 |
| 20260830081544 | 21 | 63 | 3.2 | 6.4 | 0.00 | 0.81 | 0.00 | 84 | 1008.7 |
| 20260830080042 | 21 | 19 | 3.2 | 8.0 | 0.00 | 0.81 | 0.00 | 84 | 1008.5 |
| 20260830074542 | 21 | 44 | 3.2 | 6.4 | 0.00 | 0.81 | 0.00 | 83 | 1008.6 |
| 20260830073040 | 21 | 70 | 1.6 | 4.8 | 0.00 | 0.81 | 0.00 | 83 | 1009.0 |
| 20260830071541 | 21 | 67 | 3.2 | 8.0 | 0.00 | 0.81 | 0.00 | 83 | 1008.8 |
| 20260830070037 | 21 | 66 | 1.6 | 4.8 | 0.00 | 0.81 | 0.00 | 83 | 1009.1 |
| 20260830064538 | 21 | 67 | 3.2 | 6.4 | 0.00 | 0.81 | 0.00 | 82 | 1009.0 |
| 20260830063034 | 21 | 49 | 3.2 | 8.0 | 0.00 | 0.81 | 0.00 | 82 | 1009.0 |
| 20260830061534 | 21 | 72 | 1.6 | 6.4 | 0.00 | 0.81 | 0.00 | 82 | 1009.1 |
| 20260830060030 | 21 | 79 | 0.0 | 4.8 | 0.00 | 0.81 | 0.00 | 81 | 1009.6 |
| 20260830054534 | 21 | 79 | 0.0 | 4.8 | 0.00 | 0.81 | 0.00 | 80 | 1009.6 |
| 20260830053031 | 22 | 75 | 0.0 | 4.8 | 0.00 | 0.81 | 0.00 | 80 | 1009.6 |
| 20260830051526 | 22 | 78 | 1.6 | 6.4 | 0.00 | 0.81 | 0.00 | 80 | 1009.6 |